• In Hungary
  • List of Countries
  • For 7 days
  • Water Temperature
  • Satellite Maps
  • Weather Map
  • News
  • Weather Widgets
  • user-avatar
    Login

    Hourly Weather Orzechowek

    Today, 24 September, Monday

    Time Temperature Precipitation Wind Pressure Humidity
    00:00 +12°C° 1.3 mm 8 mps 729 mmHg 84%
    01:00 +12°C° 0 mm 9 mps 729 mmHg 86%
    02:00 +11°C° 0.5 mm 9 mps 731 mmHg 84%
    03:00 +8°C° 0.5 mm 10 mps 733 mmHg 83%
    04:00 +6°C° 0.5 mm 10 mps 735 mmHg 82%
    05:00 +6°C° 0.1 mm 10 mps 736 mmHg 82%
    06:00 +6°C° 0.1 mm 9 mps 737 mmHg 81%
    07:00 +7°C° 0.1 mm 9 mps 739 mmHg 81%
    08:00 +7°C° 0.1 mm 9 mps 739 mmHg 79%
    09:00 +7°C° 0.1 mm 9 mps 740 mmHg 77%
    10:00 +7°C° 0.1 mm 9 mps 741 mmHg 75%
    11:00 +7°C° 0.1 mm 9 mps 741 mmHg 71%
    12:00 +8°C° 0.1 mm 9 mps 742 mmHg 66%
    13:00 +8°C° 0.1 mm 9 mps 742 mmHg 62%
    14:00 +8°C° 0.1 mm 9 mps 742 mmHg 61%
    15:00 +10°C° 0.1 mm 9 mps 742 mmHg 59%
    16:00 +10°C° 0.1 mm 9 mps 742 mmHg 58%
    17:00 +9°C° 0.1 mm 8 mps 743 mmHg 61%
    18:00 +8°C° 0.1 mm 7 mps 743 mmHg 64%
    19:00 +7°C° 0.1 mm 6 mps 744 mmHg 67%
    20:00 +7°C° 0 mm 6 mps 744 mmHg 68%
    21:00 +7°C° 0 mm 6 mps 745 mmHg 68%
    22:00 +6°C° 0 mm 5 mps 746 mmHg 69%
    23:00 +6°C° 0 mm 5 mps 746 mmHg 69%

    Tomorrow, 25 September, Tuesday

    Time Temperature Precipitation Wind Pressure Humidity
    00:00 +6°C° 0 mm 5 mps 747 mmHg 70%
    01:00 +6°C° 0 mm 5 mps 747 mmHg 70%
    02:00 +5°C° 0 mm 5 mps 748 mmHg 72%
    03:00 +5°C° 0 mm 5 mps 748 mmHg 74%
    04:00 +3°C° 0 mm 5 mps 748 mmHg 76%
    05:00 +5°C° 0 mm 5 mps 749 mmHg 76%
    06:00 +5°C° 0 mm 5 mps 750 mmHg 75%
    07:00 +4°C° 0 mm 6 mps 750 mmHg 75%
    08:00 +5°C° 0 mm 6 mps 751 mmHg 67%
    09:00 +8°C° 0 mm 6 mps 751 mmHg 60%
    10:00 +10°C° 0 mm 6 mps 752 mmHg 52%
    11:00 +10°C° 0 mm 6 mps 752 mmHg 48%
    12:00 +11°C° 0 mm 6 mps 752 mmHg 44%
    13:00 +11°C° 0 mm 7 mps 752 mmHg 41%
    14:00 +11°C° 0 mm 6 mps 753 mmHg 42%
    15:00 +11°C° 0 mm 6 mps 753 mmHg 43%
    16:00 +10°C° 0 mm 6 mps 753 mmHg 44%
    17:00 +9°C° 0 mm 5 mps 753 mmHg 48%
    18:00 +8°C° 0 mm 4 mps 754 mmHg 53%
    19:00 +8°C° 0 mm 3 mps 754 mmHg 58%
    20:00 +7°C° 0 mm 3 mps 755 mmHg 60%
    21:00 +7°C° 0 mm 2 mps 755 mmHg 62%
    22:00 +7°C° 0 mm 2 mps 756 mmHg 64%
    23:00 +6°C° 0 mm 2 mps 756 mmHg 66%

    Day after tomorrow, 26 September, Wednesday

    Time Temperature Precipitation Wind Pressure Humidity
    00:00 +7°C° 0 mm 1 mps 756 mmHg 67%
    01:00 +6°C° 0 mm 1 mps 756 mmHg 69%
    02:00 +6°C° 0 mm 1 mps 756 mmHg 71%
    03:00 +5°C° 0 mm 2 mps 756 mmHg 73%
    04:00 +5°C° 0 mm 2 mps 756 mmHg 75%
    05:00 +5°C° 0 mm 2 mps 756 mmHg 74%
    06:00 +6°C° 0 mm 2 mps 756 mmHg 73%
    07:00 +6°C° 0 mm 2 mps 756 mmHg 72%
    08:00 +8°C° 0 mm 3 mps 755 mmHg 65%
    09:00 +10°C° 0 mm 4 mps 755 mmHg 58%
    10:00 +12°C° 0 mm 4 mps 755 mmHg 50%
    11:00 +12°C° 0 mm 5 mps 754 mmHg 48%
    12:00 +13°C° 0 mm 5 mps 754 mmHg 45%
    13:00 +14°C° 0 mm 5 mps 753 mmHg 42%
    14:00 +14°C° 0 mm 5 mps 753 mmHg 44%
    15:00 +13°C° 0 mm 4 mps 752 mmHg 46%
    16:00 +13°C° 0 mm 4 mps 752 mmHg 48%
    17:00 +13°C° 0 mm 4 mps 752 mmHg 50%
    18:00 +12°C° 0 mm 4 mps 751 mmHg 52%
    19:00 +12°C° 0 mm 3 mps 751 mmHg 53%
    20:00 +12°C° 0 mm 4 mps 751 mmHg 53%
    21:00 +12°C° 0 mm 5 mps 751 mmHg 52%
    22:00 +12°C° 0 mm 5 mps 751 mmHg 51%
    23:00 +10°C° 0 mm 5 mps 750 mmHg 51%

    27 September, Thursday

    Time Temperature Precipitation Wind Pressure Humidity
    00:00 +10°C° 0 mm 5 mps 750 mmHg 52%
    01:00 +9°C° 0 mm 5 mps 750 mmHg 52%
    02:00 +9°C° 0 mm 5 mps 750 mmHg 52%
    03:00 +9°C° 0 mm 6 mps 749 mmHg 52%
    04:00 +9°C° 0 mm 6 mps 749 mmHg 52%
    05:00 +9°C° 0 mm 6 mps 749 mmHg 53%
    06:00 +10°C° 0 mm 6 mps 749 mmHg 53%
    07:00 +10°C° 0 mm 6 mps 749 mmHg 53%
    08:00 +13°C° 0 mm 6 mps 749 mmHg 54%
    09:00 +14°C° 0 mm 6 mps 749 mmHg 54%
    10:00 +15°C° 0 mm 6 mps 749 mmHg 54%
    11:00 +17°C° 0 mm 6 mps 749 mmHg 55%
    12:00 +19°C° 0 mm 6 mps 749 mmHg 56%
    13:00 +20°C° 0 mm 6 mps 748 mmHg 56%
    14:00 +20°C° 0 mm 6 mps 748 mmHg 58%
    15:00 +20°C° 0 mm 5 mps 748 mmHg 60%
    16:00 +20°C° 0 mm 5 mps 748 mmHg 62%
    17:00 +19°C° 0 mm 4 mps 748 mmHg 68%
    18:00 +17°C° 0 mm 4 mps 748 mmHg 73%
    19:00 +16°C° 0 mm 3 mps 748 mmHg 79%
    20:00 +16°C° 0 mm 3 mps 748 mmHg 81%
    21:00 +14°C° 0 mm 3 mps 748 mmHg 83%
    22:00 +14°C° 0 mm 3 mps 747 mmHg 86%
    23:00 +13°C° 0 mm 3 mps 747 mmHg 87%

    28 September, Friday

    Time Temperature Precipitation Wind Pressure Humidity
    00:00 +13°C° 0 mm 3 mps 747 mmHg 88%
    01:00 +13°C° 0 mm 3 mps 746 mmHg 89%
    02:00 +12°C° 0 mm 3 mps 746 mmHg 88%
    03:00 +12°C° 0 mm 3 mps 745 mmHg 87%
    04:00 +12°C° 0 mm 3 mps 744 mmHg 86%
    05:00 +13°C° 0 mm 3 mps 744 mmHg 82%
    06:00 +13°C° 0 mm 4 mps 744 mmHg 78%
    07:00 +14°C° 0 mm 4 mps 743 mmHg 74%
    08:00 +16°C° 0 mm 5 mps 743 mmHg 68%
    09:00 +19°C° 0 mm 5 mps 743 mmHg 62%
    10:00 +20°C° 0 mm 5 mps 742 mmHg 55%
    11:00 +21°C° 0 mm 6 mps 742 mmHg 52%
    12:00 +22°C° 0 mm 6 mps 742 mmHg 49%
    13:00 +23°C° 0 mm 6 mps 741 mmHg 45%
    14:00 +22°C° 0 mm 6 mps 741 mmHg 46%
    15:00 +22°C° 0 mm 5 mps 741 mmHg 46%
    16:00 +21°C° 0 mm 5 mps 740 mmHg 46%
    17:00 +19°C° 0 mm 4 mps 741 mmHg 52%
    18:00 +17°C° 0 mm 4 mps 741 mmHg 57%
    19:00 +16°C° 0 mm 3 mps 741 mmHg 62%
    20:00 +14°C° 0 mm 3 mps 741 mmHg 66%
    21:00 +13°C° 0 mm 3 mps 742 mmHg 70%
    22:00 +12°C° 0 mm 3 mps 742 mmHg 74%
    23:00 +12°C° 0.1 mm 4 mps 742 mmHg 73%

    29 September, Saturday

    Time Temperature Precipitation Wind Pressure Humidity
    00:00 +12°C° 0.1 mm 4 mps 742 mmHg 71%
    01:00 +11°C° 0.1 mm 4 mps 743 mmHg 70%
    02:00 +11°C° 0.1 mm 4 mps 743 mmHg 73%
    03:00 +10°C° 0.1 mm 4 mps 743 mmHg 77%
    04:00 +8°C° 0.1 mm 4 mps 744 mmHg 80%
    05:00 +8°C° 0.2 mm 4 mps 744 mmHg 81%
    06:00 +8°C° 0.2 mm 4 mps 745 mmHg 82%
    07:00 +8°C° 0.2 mm 5 mps 745 mmHg 82%
    08:00 +9°C° 0.2 mm 5 mps 746 mmHg 77%
    09:00 +10°C° 0.2 mm 5 mps 746 mmHg 71%
    10:00 +12°C° 0.2 mm 5 mps 747 mmHg 65%
    11:00 +12°C° 0 mm 5 mps 747 mmHg 59%
    12:00 +13°C° 0 mm 6 mps 747 mmHg 53%
    13:00 +13°C° 0 mm 6 mps 748 mmHg 47%
    14:00 +13°C° 0 mm 5 mps 748 mmHg 45%
    15:00 +13°C° 0 mm 5 mps 748 mmHg 44%
    16:00 +12°C° 0 mm 5 mps 748 mmHg 42%
    17:00 +11°C° 0 mm 4 mps 749 mmHg 45%
    18:00 +10°C° 0 mm 3 mps 749 mmHg 48%
    19:00 +8°C° 0 mm 3 mps 750 mmHg 52%
    20:00 +8°C° 0 mm 2 mps 750 mmHg 53%
    21:00 +7°C° 0 mm 2 mps 750 mmHg 55%
    22:00 +7°C° 0 mm 2 mps 751 mmHg 57%
    23:00 +6°C° 0 mm 2 mps 751 mmHg 58%
    Show more